SL-16 DEB, 29098

Orbit data source: Space-Track

SL-16 DEB, 29098 is space debris in LEO originally from a launch on Fri, 26 Mar 1993 UTC launched from the Tyuratam Missile And Space Complex (TTMTR). Debris objects in space refer to the collection of defunct objects orbiting the Earth. Examples of debris include non-operational satellites, rocket bodies, and fragments generated from explosions, collisions, or faulty payload assembly.

Loading next visibility...
Identifier
29098, 1993-016AM
Orbit
LEO
Last TLE update
2 days ago
Origin
Manufacturer
Unknown
Mission
Spacecraft
Bus & Motor
Unknown
Mass
Unknown
Launch date (UTC)
1993-03-26 (32 years ago)
Launch vehicle
Unknown
Launch site
Tyuratam Missile And Space Complex (TTMTR)
Object type
Payload
Rocket body
Debris
Shape & HBR
Unknown
Radar Cross Section
Small (<0.1 m²)

Expand to show TLE details & history

TLE from 2 days ago
0 SL-16 DEB
1 29098U 93016AM  25180.44382125  .00000699  00000-0  36161-3 0  9996
2 29098  70.9272 192.6079 0082194  10.6556  59.7599 14.16718680620811
Epoch: 2025-06-29T10:39Z
TLE epoch observation values (Epoch: 2025-06-29T10:39:06.155Z)
Latitude
63.59632°
Longitude
158.90868°
Altitude
817.364 km
Speed
7.466 km/s
True Right ascension
15h 45m 48s
True Declination
63° 27' 37"
Sunlit
Object was in daylight at epoch
Visualization orbit readout
Latitude
-64.60724°
Longitude
64.51495°
Altitude
850.191 km
Speed
7.432 km/s
Apparent Right ascension
09h 13m 27s
Apparent Declination
-52° 54' 59"
Sunlit
Object is in daylight
Visualization observer readout
Local Sidereal Time
21:04:05
Azimuth
186.243° SSW
Elevation
-76.902°
Doppler factor
1
Orbital elements
Apogee altitude
893.684 km
Perigee altitude
775.119 km
Semi-major axis
7,212.539 km
Eccentricity
0.00822
Inclination
70.9272°
RAAN
192.6079°
Arg. of periapsis
10.6556°
True anomaly
Unknown
Mean anomaly
59.7599°
Eccentric anomaly
Unknown
Mean motion
3.54332 °/min
Orbital period
101.6 mins
BSTAR
0.00036161
Loading maneuver chart data...
Loading SW <> Apogee altitude chart data...
Loading historical data...
Loading historical data...
Loading historical data...
Loading historical data...
Loading historical data...
Loading historical data...
Loading historical data...

SL-16 DEB Visibility forecast

Observer location: undefined°, undefined°

Span
Click to sort rows by Start time (UTC) header in descending order
Start Az.
Max El. time (UTC)
Max El. Az.
Max El.
End time (UTC)
End Az.
7 mins2025-07-01 10:18:48.178Z10.823° NNE2025-07-01 10:22:48.178Z60.109° ENE19.295°2025-07-01 10:25:48.178Z94.603° ESE
9 mins2025-07-01 12:02:48.178Z326.047° NNW2025-07-01 12:06:48.178Z243.718° WSW41.734°2025-07-01 12:11:48.178Z172.28° S
8 mins2025-07-02 01:08:48.178Z164.311° S2025-07-02 01:12:48.178Z92.674° ESE30.963°2025-07-02 01:16:48.178Z41.163° NE
7 mins2025-07-02 02:53:48.178Z262.507° W2025-07-02 02:56:48.178Z313.156° NW24.624°2025-07-02 03:00:48.178Z1.406° NNE
|